Location: Cheching
(60.0667°N, 164.2167°W)
Time: 16:36:11
(UTC+00:00)

FENGYUN 1C DEB - Visible Passes

Search period start: 25 September 2021 00:00
Search period end: 05 October 2021 00:00
Orbit: 727 x 820 km, 99.4° (Epoch: 24 September)

Date Brightness Start Highest point End Pass type
(mag) Time Alt. Az. Time Alt. Az. Time Alt. Az.
25 Sep ? 06:08:02 10° N 06:09:40 12° NNW 06:11:17 10° NW visible
25 Sep ? 10:59:25 19° ENE 11:01:11 23° NE 11:05:01 10° N visible
25 Sep ? 12:39:48 78° NE 12:39:48 78° NE 12:44:37 10° NNW visible
25 Sep ? 14:20:11 23° WNW 14:20:11 23° WNW 14:23:19 10° NW visible
26 Sep ? 05:33:04 10° N 05:35:55 15° NW 05:38:49 10° WNW visible
26 Sep ? 10:24:47 12° ENE 10:27:19 17° NE 10:30:21 10° N visible
26 Sep ? 12:05:10 48° ENE 12:05:25 49° ENE 12:10:12 10° NNW visible
26 Sep ? 13:45:33 36° WNW 13:45:33 36° WNW 13:49:19 10° NNW visible
27 Sep ? 09:51:36 10° NE 09:53:33 12° NNE 09:55:31 10° N visible
27 Sep ? 11:30:32 30° ENE 11:31:19 32° NE 11:35:42 10° N visible
27 Sep ? 13:10:55 57° WNW 13:10:55 57° WNW 13:15:06 10° NNW visible
27 Sep ? 14:51:18 15° WNW 14:51:18 15° WNW 14:53:07 10° NW visible
28 Sep ? 06:03:58 10° N 06:05:53 12° NNW 06:07:49 10° NW visible
28 Sep ? 10:55:54 19° ENE 10:57:21 22° NE 11:01:08 10° N visible
28 Sep ? 12:36:16 67° NNE 12:36:16 67° NNE 12:40:46 10° NNW visible
28 Sep ? 14:16:39 23° WNW 14:16:39 23° WNW 14:19:31 10° NW visible
29 Sep ? 05:29:05 10° N 05:32:08 16° NW 05:35:14 10° WNW visible
29 Sep ? 10:21:15 12° ENE 10:23:31 16° NE 10:26:27 10° N visible
29 Sep ? 12:01:38 46° NE 12:01:38 46° NE 12:06:19 10° NNW visible
29 Sep ? 13:42:01 36° WNW 13:42:01 36° WNW 13:45:29 10° NNW visible
30 Sep ? 09:47:59 10° NE 09:49:46 12° NNE 09:51:34 10° N visible
30 Sep ? 11:27:00 30° ENE 11:27:29 30° NE 11:31:49 10° N visible
30 Sep ? 13:07:23 52° NW 13:07:23 52° NW 13:11:15 10° NNW visible
30 Sep ? 14:47:46 15° WNW 14:47:46 15° WNW 14:49:25 10° NW visible
01 Oct ? 05:59:55 10° N 06:02:06 13° NNW 06:04:18 10° NW visible
01 Oct ? 10:52:21 19° ENE 10:53:32 21° NE 10:57:14 10° N visible
01 Oct ? 12:32:44 57° NNE 12:32:44 57° NNE 12:36:53 10° NNW visible
01 Oct ? 14:13:07 23° WNW 14:13:07 23° WNW 14:15:43 10° NW visible
02 Oct ? 05:25:06 10° N 05:28:20 17° NW 05:31:37 10° WNW visible
02 Oct ? 10:17:42 12° ENE 10:19:42 15° NE 10:22:33 10° N visible
02 Oct ? 11:58:05 42° NE 11:58:05 42° NE 12:02:26 10° NNW visible
02 Oct ? 13:38:29 34° NW 13:38:29 34° NW 13:41:38 10° NNW visible
03 Oct ? 06:31:12 10° NNW 06:32:00 10° NNW 06:32:48 10° NNW visible
03 Oct ? 09:44:19 10° NE 09:45:58 12° NNE 09:47:39 10° N visible
03 Oct ? 11:23:27 29° NE 11:23:38 29° NE 11:27:55 10° N visible
03 Oct ? 13:03:50 46° NNW 13:03:50 46° NNW 13:07:23 10° NNW visible
03 Oct ? 14:44:13 15° WNW 14:44:13 15° WNW 14:45:41 10° NW visible
04 Oct ? 05:55:53 10° N 05:58:19 14° NNW 06:00:45 10° WNW visible
04 Oct ? 10:48:49 19° NE 10:49:43 20° NE 10:53:20 10° N visible
04 Oct ? 12:29:11 48° N 12:29:11 48° N 12:33:00 10° NNW visible
04 Oct ? 14:09:34 22° NW 14:09:34 22° NW 14:11:54 10° NNW visible
